Terminal Aerodrome Forecast
Issued by NWS

Home | Current Version | Previous Version | Text Only | Print | Product List | Glossary On
Versions: 1 2 3 4 5 6 7 8 9 10 11 12 13 14 15 16 17 18 19 20 21 22 23 24 25 26 27 28 29 30 31 32 33 34
000
FTUS45 KPSR 291136
TAFIWA
TAF
KIWA 291136Z 2912/3012 13007KT P6SM SCT100 BKN200
     FM291800 25009KT P6SM VCSH SCT090 BKN120 BKN200
     FM300000 18012KT P6SM VCTS SCT080CB BKN120 BKN200
     FM300300 22010KT P6SM VCSH SCT080 BKN100 BKN180
      AMD LTD TO CLD VIS AND WIND TIL 291300=

USA.gov is the U.S. government's official web portal to all federal, state and local government web resources and services.